COSMOS 970 DEB, 10890

Orbit data source: Space-Track

COSMOS 970 DEB, 10890 is space debris in LEO originally from a launch on Wed, 21 Dec 1977 UTC launched from the Tyuratam Missile And Space Complex (TTMTR). Debris objects in space refer to the collection of defunct objects orbiting the Earth. Examples of debris include non-operational satellites, rocket bodies, and fragments generated from explosions, collisions, or faulty payload assembly.

Loading next visibility...
Identifier
10890, 1977-121AM
Orbit
LEO
Country
Flag of CISCIS
Related business
Manufacturer
Unknown
Mission
Spacecraft
Bus & Motor
Unknown
Mass
Unknown
Launch date (UTC)
1977-12-21 (48 years ago)
Launch vehicle
Unknown
Launch site
Tyuratam Missile And Space Complex (TTMTR)
Object type
Payload
Rocket body
Debris
Shape & HBR
Unknown shape, 0.1 m
Radar Cross Section
Medium (>0.1 m² and <1 m²)

Expand to show TLE details & history
Last TLE update: 11 hours ago

TLE from 11 hours ago
0 COSMOS 970 DEB
1 10890U 77121AM  26171.45246191  .00000106  00000-0  19341-3 0  9993
2 10890  65.7761 231.7257 0136304 342.7670  39.2946 13.71403824419960
Epoch: 2026-06-20T10:51Z
TLE epoch observation values (Epoch: 2026-06-20T10:51:32.709Z)
Latitude
20.95721°
Longitude
170.04282°
Altitude
918.972 km
Speed
7.433 km/s
True Right ascension
16h 06m 23s
True Declination
20° 50' 43"
Sunlit
Object was in full shadow at epoch
Visualization orbit readout
Latitude
Unknown
Longitude
Unknown
Altitude
Unknown
Speed
Unknown
Apparent Right ascension
Unknown
Apparent Declination
Unknown
Sunlit
N/A
Visualization observer readout
Local Sidereal Time
08:41:54
Azimuth
Unknown
Elevation
Unknown
Doppler factor
Unknown
Orbital elements
Apogee altitude
1,093.534 km
Perigee altitude
892.589 km
Semi-major axis
7,371.198 km
Eccentricity
0.01363
Inclination
65.7761°
RAAN
231.7257°
Arg. of periapsis
342.767°
True anomaly
40.29694°
Mean anomaly
39.2946°
Eccentric anomaly
39.79444°
Mean motion
3.42954 °/min
Orbital period
104.97 mins
BSTAR
0.00019341
Loading maneuver chart data...
Computing Atmospheric mass density...
Loading historical data...
Loading historical data...
Loading historical data...
Loading historical data...
Loading historical data...
Loading historical data...
Loading historical data...

Documentation

Showing up to 5 results
|